Regional Weather Roundup
Issued by NWS

Home | Current Version | Previous Version | Text Only | Print | Product List | Glossary On
Versions: 1 2 3 4 5 6 7 8 9 10 11 12 13 14 15 16 17 18 19 20 21 22 23 24 25 26 27 28 29 30 31 32 33 34 35 36 37 38 39 40 41 42 43 44 45 46 47 48 49 50
000
ASUS45 KREV 171510
RWRNV
NEVADA REGIONAL WEATHER ROUNDUP
NATIONAL WEATHER SERVICE RENO NV
800 AM PDT WED SEP 17 2014

NOTE: "FAIR" INDICATES FEW OR NO CLOUDS BELOW 12,000 FEET WITH NO
SIGNIFICANT WEATHER AND/OR OBSTRUCTIONS TO VISIBILITY.

NVZ001-003-004-171600-
WESTERN NEVADA

CITY           SKY/WX    TMP DP  RH WIND       PRES   REMARKS
RENO           PTSUNNY   72  35  25 VRB3      29.98S
MINDEN         FAIR      64  36  34 CALM      30.02S
SLIDE MTN        N/A     48  32  53 SW18        N/A
PYRAMID LAKE     N/A     73 N/A N/A SW6         N/A
FALLON         MOSUNNY   66  31  27 CALM      29.95S SMOKE
LOVELOCK       SUNNY     61  34  36 CALM      29.96R HAZE
HAWTHORNE      SUNNY     70  39  32 CALM      29.99R
$$

NVZ002-CAZ072-073-171600-
NORTHERN AND CENTRAL SIERRA

CITY           SKY/WX    TMP DP  RH WIND       PRES   REMARKS
S. LAKE TAHOE  MOSUNNY   52  32  46 CALM      30.10R
SQUAW VLY 8000 NOT AVBL
SUSANVILLE     SUNNY     61  34  36 W3        29.96R
BLUE CANYON    CLOUDY    64  33  31 SE7       30.05S HAZE
MAMMOTH LAKES  FAIR      52  37  58 N3        30.19S
BRIDGEPORT     FAIR      56  32  40 SW5       30.13S
$$

NVZ030-031-036-171600-
NORTHERN NEVADA

CITY           SKY/WX    TMP DP  RH WIND       PRES   REMARKS
ELKO           PTSUNNY   54  33  45 CALM      30.04R
WINNEMUCCA     PTSUNNY   55  30  38 CALM      29.98S
WENDOVER       SUNNY     70  37  30 NE7       29.99R
$$

NVZ035-037-171600-
CENTRAL NEVADA

CITY           SKY/WX    TMP DP  RH WIND       PRES   REMARKS
ELY            SUNNY     62  40  44 S6        30.15S
EUREKA           N/A     65  42  43 S7        30.10R
$$

NVZ013-014-171600-
SOUTH CENTRAL NEVADA

CITY           SKY/WX    TMP DP  RH WIND       PRES   REMARKS
TONOPAH        SUNNY     66  53  63 CALM      30.09S
$$

NVZ017-020-022-171600-
SOUTHERN NEVADA

CITY           SKY/WX    TMP DP  RH WIND       PRES   REMARKS
LAS VEGAS      MOSUNNY   82  57  42 SE5       29.87R
N. LAS VEGAS   SUNNY     81  55  40 CALM      29.90R
NELLIS AFB     SUNNY     81  62  51 NE8       29.88R
HENDERSON      SUNNY     79  57  46 CALM      29.93R
MERCURY        SUNNY     77  54  44 E6        29.95
$$


USA.gov is the U.S. government's official web portal to all federal, state and local government web resources and services.